If you wish to contribute or participate in the discussions about articles you are invited to join SKYbrary as a registered user

 Actions

Accra/Kotoka

From SKYbrary Wiki

DGAA
Airport
ICAO: DGAA
Summary
Name Accra/Kotoka
Region Africa
Territory Ghana GH.gif
Location Accra
Serving
Coordinates 5° 36' 17.3376", -0° 10' 2.424"
Runways
Designator Length Width Surface ROPS
3/21 3403 m11,164.698 ft 61 m200.131 ft ASP yes/yes


METAR
Observation DGAA 202200Z 24008KT 9999 FEW022 BKN038 26/24 Q1016 NOSIG
Station Accra
Date/Time 20 June 2018 22:00:00
Wind direction 240°
Wind speed 08 kts
Lowest cloud amount few clouds
Temperature 26°C
Dew point 24°C
Humidity 88%
QNH 1016 hPa
Weather condition n/a


Accra/Kotoka Airport

ICAO: DGAA IATA: ACC

Description

International airport serving the capital of Ghana.

Climatology

Tropical Savanna climate (Köppen climate classification Aw)

Maps

Terrain

Loading map...

Airport Layout

Loading map...


Accidents & Serious Incidents at or in vicinity of DGAA

None on SKYbrary